Time,TemperatureF,DewpointF,PressureIn,WindDirection,WindDirectionDegrees,WindSpeedMPH,WindSpeedGustMPH,Humidity,HourlyPrecipIn,Conditions,Clouds,dailyrainin,SoftwareType,DateUTC
2012-09-14 00:01:00,77.5,60.6,30.15,NW,304,0.0,0.0,56,0.00,,,0.00,VWS V13.01,2012-09-14 05:01:00,
2012-09-14 00:06:00,77.5,60.6,30.15,NW,304,0.0,0.0,56,0.00,,,0.00,VWS V13.01,2012-09-14 05:06:00,
2012-09-14 00:11:00,77.3,60.9,30.15,NW,304,0.0,0.0,57,0.00,,,0.00,VWS V13.01,2012-09-14 05:11:00,
2012-09-14 00:16:00,76.9,61.0,30.15,NW,304,0.0,0.0,58,0.00,,,0.00,VWS V13.01,2012-09-14 05:16:00,
2012-09-14 00:21:00,76.8,61.8,30.15,NW,321,0.0,0.0,60,0.00,,,0.00,VWS V13.01,2012-09-14 05:21:00,
2012-09-14 00:26:00,76.6,61.7,30.15,NW,321,0.0,0.0,60,0.00,,,0.00,VWS V13.01,2012-09-14 05:26:00,
2012-09-14 00:31:00,76.4,60.5,30.15,NW,321,0.0,0.0,58,0.00,,,0.00,VWS V13.01,2012-09-14 05:31:00,
2012-09-14 00:36:00,76.6,60.2,30.15,ENE,69,0.0,0.0,57,0.00,,,0.00,VWS V13.01,2012-09-14 05:36:00,
2012-09-14 00:41:00,76.8,60.9,30.15,East,94,0.0,0.0,58,0.00,,,0.00,VWS V13.01,2012-09-14 05:41:00,
2012-09-14 00:46:00,76.9,60.1,30.15,East,81,0.0,0.0,56,0.00,,,0.00,VWS V13.01,2012-09-14 05:46:00,
2012-09-14 00:51:00,77.3,60.4,30.15,SSE,154,0.0,0.0,56,0.00,,,0.00,VWS V13.01,2012-09-14 05:51:00,
2012-09-14 00:56:00,77.3,60.4,30.15,SSE,155,0.0,0.0,56,0.00,,,0.00,VWS V13.01,2012-09-14 05:56:00,
2012-09-14 01:01:00,77.3,60.4,30.15,SSE,155,0.0,0.0,56,0.00,,,0.00,VWS V13.01,2012-09-14 06:01:00,
2012-09-14 01:06:00,77.1,60.7,30.15,SSE,155,0.0,0.0,57,0.00,,,0.00,VWS V13.01,2012-09-14 06:06:00,
2012-09-14 01:11:00,76.9,61.0,30.15,SSE,155,0.0,0.0,58,0.00,,,0.00,VWS V13.01,2012-09-14 06:11:00,
2012-09-14 01:16:00,76.9,61.0,30.15,SSE,155,0.0,0.0,58,0.00,,,0.00,VWS V13.01,2012-09-14 06:16:00,
2012-09-14 01:21:00,76.8,60.9,30.15,SSE,155,0.0,0.0,58,0.00,,,0.00,VWS V13.01,2012-09-14 06:21:00,
2012-09-14 01:26:00,76.6,61.2,30.15,SSE,155,0.0,0.0,59,0.00,,,0.00,VWS V13.01,2012-09-14 06:26:00,
2012-09-14 01:30:00,76.4,61.5,30.15,SSE,155,0.0,0.0,60,0.00,,,0.00,VWS V13.01,2012-09-14 06:30:00,
2012-09-14 01:35:00,76.4,61.5,30.15,SSE,155,0.0,0.0,60,0.00,,,0.00,VWS V13.01,2012-09-14 06:35:00,
2012-09-14 01:40:00,76.2,61.3,30.15,SSE,155,0.0,0.0,60,0.00,,,0.00,VWS V13.01,2012-09-14 06:40:00,
2012-09-14 01:45:00,76.2,61.8,30.15,SSE,155,0.0,0.0,61,0.00,,,0.00,VWS V13.01,2012-09-14 06:45:00,
2012-09-14 01:50:00,76.0,61.6,30.15,SSE,155,0.0,0.0,61,0.00,,,0.00,VWS V13.01,2012-09-14 06:50:00,
2012-09-14 01:55:00,75.9,62.4,30.15,SSE,155,0.0,0.0,63,0.00,,,0.00,VWS V13.01,2012-09-14 06:55:00,
2012-09-14 02:00:00,75.9,63.3,30.15,SSE,155,0.0,0.0,65,0.00,,,0.00,VWS V13.01,2012-09-14 07:00:00,
2012-09-14 02:05:00,75.7,63.1,30.15,SSE,155,0.0,0.0,65,0.00,,,0.00,VWS V13.01,2012-09-14 07:05:00,
2012-09-14 02:10:00,75.7,62.7,30.15,SSE,155,0.0,0.0,64,0.00,,,0.00,VWS V13.01,2012-09-14 07:10:00,
2012-09-14 02:15:00,75.3,62.8,30.15,SSE,155,0.0,0.0,65,0.00,,,0.00,VWS V13.01,2012-09-14 07:15:00,
2012-09-14 02:20:00,75.1,63.0,30.15,SSE,155,0.0,0.0,66,0.00,,,0.00,VWS V13.01,2012-09-14 07:20:00,
2012-09-14 02:25:00,75.0,62.8,30.15,SSE,155,0.0,0.0,66,0.00,,,0.00,VWS V13.01,2012-09-14 07:25:00,
2012-09-14 02:30:00,75.0,62.8,30.12,SSE,155,0.0,0.0,66,0.00,,,0.00,VWS V13.01,2012-09-14 07:30:00,
2012-09-14 02:35:00,74.8,63.1,30.12,SSE,155,0.0,0.0,67,0.00,,,0.00,VWS V13.01,2012-09-14 07:35:00,
2012-09-14 02:40:00,74.8,63.5,30.12,SSE,155,0.0,0.0,68,0.00,,,0.00,VWS V13.01,2012-09-14 07:40:00,
2012-09-14 02:45:00,74.6,63.8,30.12,SSE,155,0.0,0.0,69,0.00,,,0.00,VWS V13.01,2012-09-14 07:45:00,
2012-09-14 02:50:00,74.4,64.4,30.12,SSE,155,0.0,0.0,71,0.00,,,0.00,VWS V13.01,2012-09-14 07:50:00,
2012-09-14 02:55:00,74.2,64.2,30.12,SSE,155,0.0,0.0,71,0.00,,,0.00,VWS V13.01,2012-09-14 07:55:00,
2012-09-14 03:00:00,74.2,64.6,30.12,SSE,155,0.0,0.0,72,0.00,,,0.00,VWS V13.01,2012-09-14 08:00:00,
2012-09-14 03:05:00,74.2,64.6,30.12,South,185,0.0,0.0,72,0.00,,,0.00,VWS V13.01,2012-09-14 08:05:00,
2012-09-14 03:10:00,74.2,64.6,30.12,SSW,209,0.0,0.0,72,0.00,,,0.00,VWS V13.01,2012-09-14 08:10:00,
2012-09-14 03:15:00,74.2,64.6,30.12,SSW,209,0.0,0.0,72,0.00,,,0.00,VWS V13.01,2012-09-14 08:15:00,
2012-09-14 03:20:00,74.2,65.0,30.12,SSW,209,0.0,0.0,73,0.00,,,0.00,VWS V13.01,2012-09-14 08:20:00,
2012-09-14 03:25:00,74.2,64.6,30.12,SSW,209,0.0,0.0,72,0.00,,,0.00,VWS V13.01,2012-09-14 08:25:00,
2012-09-14 03:30:00,74.2,64.6,30.12,SSW,209,0.0,0.0,72,0.00,,,0.00,VWS V13.01,2012-09-14 08:30:00,
2012-09-14 03:35:00,74.2,65.4,30.12,SSW,209,0.0,0.0,74,0.00,,,0.00,VWS V13.01,2012-09-14 08:35:00,
2012-09-14 03:40:00,74.1,65.2,30.12,SSW,208,0.0,0.0,74,0.00,,,0.00,VWS V13.01,2012-09-14 08:40:00,
2012-09-14 03:45:00,73.9,65.5,30.12,SSW,209,0.0,0.0,75,0.00,,,0.00,VWS V13.01,2012-09-14 08:45:00,
2012-09-14 03:50:00,73.9,66.2,30.12,SSW,209,0.0,0.0,77,0.00,,,0.00,VWS V13.01,2012-09-14 08:50:00,
2012-09-14 03:55:00,73.7,66.1,30.12,SSW,209,0.0,0.0,77,0.00,,,0.00,VWS V13.01,2012-09-14 08:55:00,
2012-09-14 04:00:00,73.9,65.8,30.12,SSW,209,0.0,0.0,76,0.00,,,0.00,VWS V13.01,2012-09-14 09:00:00,
2012-09-14 04:05:00,73.9,65.8,30.12,SSW,209,0.0,0.0,76,0.00,,,0.00,VWS V13.01,2012-09-14 09:05:00,
2012-09-14 04:10:00,73.9,65.8,30.12,SSW,209,0.0,0.0,76,0.00,,,0.00,VWS V13.01,2012-09-14 09:10:00,
2012-09-14 04:15:00,73.7,65.7,30.12,SSW,209,0.0,0.0,76,0.00,,,0.00,VWS V13.01,2012-09-14 09:15:00,
2012-09-14 04:20:00,73.7,65.7,30.12,SSW,209,0.0,0.0,76,0.00,,,0.00,VWS V13.01,2012-09-14 09:20:00,
2012-09-14 04:25:00,73.7,65.7,30.12,SSW,209,0.0,0.0,76,0.00,,,0.00,VWS V13.01,2012-09-14 09:25:00,
2012-09-14 04:30:00,73.5,65.9,30.12,SSW,209,0.0,0.0,77,0.00,,,0.00,VWS V13.01,2012-09-14 09:30:00,
2012-09-14 04:35:00,73.7,66.4,30.12,SSW,209,0.0,0.0,78,0.00,,,0.00,VWS V13.01,2012-09-14 09:35:00,
2012-09-14 04:40:00,73.5,66.6,30.12,SSW,209,0.0,0.0,79,0.00,,,0.00,VWS V13.01,2012-09-14 09:40:00,
2012-09-14 04:45:00,73.5,66.6,30.12,SSW,209,0.0,0.0,79,0.00,,,0.00,VWS V13.01,2012-09-14 09:45:00,
2012-09-14 04:50:00,73.3,66.4,30.12,SSW,209,0.0,0.0,79,0.00,,,0.00,VWS V13.01,2012-09-14 09:50:00,
2012-09-14 04:55:00,73.3,66.4,30.12,SSW,209,0.0,0.0,79,0.00,,,0.00,VWS V13.01,2012-09-14 09:55:00,
2012-09-14 05:00:00,73.3,66.8,30.12,SSW,209,0.0,0.0,80,0.00,,,0.00,VWS V13.01,2012-09-14 10:00:00,
2012-09-14 05:05:00,73.3,67.2,30.12,SSW,209,0.0,0.0,81,0.00,,,0.00,VWS V13.01,2012-09-14 10:05:00,
2012-09-14 05:10:00,73.3,67.2,30.12,SSW,209,0.0,0.0,81,0.00,,,0.00,VWS V13.01,2012-09-14 10:10:00,
2012-09-14 05:15:00,73.3,67.2,30.12,SSW,209,0.0,0.0,81,0.00,,,0.00,VWS V13.01,2012-09-14 10:15:00,
2012-09-14 05:20:00,73.3,67.2,30.12,SSW,209,0.0,0.0,81,0.00,,,0.00,VWS V13.01,2012-09-14 10:20:00,
2012-09-14 05:25:00,73.3,66.8,30.12,SSW,209,0.0,0.0,80,0.00,,,0.00,VWS V13.01,2012-09-14 10:25:00,
2012-09-14 05:30:00,73.3,66.8,30.12,SSW,209,0.0,0.0,80,0.00,,,0.00,VWS V13.01,2012-09-14 10:30:00,
2012-09-14 05:35:00,73.2,67.0,30.12,SSW,209,0.0,0.0,81,0.00,,,0.00,VWS V13.01,2012-09-14 10:35:00,
2012-09-14 05:40:00,73.2,66.6,30.12,SSW,209,0.0,0.0,80,0.00,,,0.00,VWS V13.01,2012-09-14 10:40:00,
2012-09-14 05:45:00,73.2,66.6,30.12,SSW,209,0.0,0.0,80,0.00,,,0.00,VWS V13.01,2012-09-14 10:45:00,
2012-09-14 05:50:00,73.2,66.6,30.12,SSW,209,0.0,0.0,80,0.00,,,0.00,VWS V13.01,2012-09-14 10:50:00,
2012-09-14 05:55:00,73.3,66.8,30.12,SSW,209,0.0,0.0,80,0.00,,,0.00,VWS V13.01,2012-09-14 10:55:00,
2012-09-14 06:00:00,73.3,66.4,30.15,SSW,209,0.0,0.0,79,0.00,,,0.00,VWS V13.01,2012-09-14 11:00:00,
2012-09-14 06:05:00,73.3,66.4,30.15,SSW,209,0.0,0.0,79,0.00,,,0.00,VWS V13.01,2012-09-14 11:05:00,
2012-09-14 06:10:00,73.5,66.6,30.15,SSW,209,0.0,0.0,79,0.00,,,0.00,VWS V13.01,2012-09-14 11:10:00,
2012-09-14 06:15:00,73.5,66.6,30.12,SSW,209,0.0,0.0,79,0.00,,,0.00,VWS V13.01,2012-09-14 11:15:00,
2012-09-14 06:20:00,73.5,66.6,30.12,SSW,209,0.0,0.0,79,0.00,,,0.00,VWS V13.01,2012-09-14 11:20:00,
2012-09-14 06:25:00,73.3,66.4,30.12,SSW,209,0.0,0.0,79,0.00,,,0.00,VWS V13.01,2012-09-14 11:25:00,
2012-09-14 06:30:00,73.5,66.6,30.15,SSW,209,0.0,0.0,79,0.00,,,0.00,VWS V13.01,2012-09-14 11:30:00,
2012-09-14 06:35:00,73.5,66.6,30.15,SSW,209,0.0,0.0,79,0.00,,,0.00,VWS V13.01,2012-09-14 11:35:00,
2012-09-14 06:40:00,73.5,66.6,30.15,SSW,209,0.0,0.0,79,0.00,,,0.00,VWS V13.01,2012-09-14 11:40:00,
2012-09-14 06:45:00,73.7,66.4,30.15,SSW,209,0.0,0.0,78,0.00,,,0.00,VWS V13.01,2012-09-14 11:45:00,
2012-09-14 06:50:00,73.7,66.4,30.15,SSW,209,0.0,0.0,78,0.00,,,0.00,VWS V13.01,2012-09-14 11:50:00,
2012-09-14 06:55:00,73.9,66.6,30.15,SSW,209,0.0,0.0,78,0.00,,,0.00,VWS V13.01,2012-09-14 11:55:00,
2012-09-14 07:00:00,73.9,66.2,30.15,SSW,209,0.0,0.0,77,0.00,,,0.00,VWS V13.01,2012-09-14 12:00:00,
2012-09-14 07:05:00,73.9,66.2,30.15,SSW,209,0.0,0.0,77,0.00,,,0.00,VWS V13.01,2012-09-14 12:05:00,
2012-09-14 07:08:00,73.9,66.2,30.15,SSW,209,0.0,0.0,77,0.00,,,0.00,VWS V13.01,2012-09-14 12:08:00,
2012-09-14 07:13:00,74.1,66.0,30.15,WNW,300,0.0,0.0,76,0.00,,,0.00,VWS V13.01,2012-09-14 12:13:00,
2012-09-14 07:18:00,74.1,66.0,30.15,NNW,344,0.0,0.0,76,0.00,,,0.00,VWS V13.01,2012-09-14 12:18:00,
2012-09-14 07:23:00,74.2,66.2,30.15,NNE,14,0.0,0.0,76,0.00,,,0.00,VWS V13.01,2012-09-14 12:23:00,
2012-09-14 07:28:00,74.2,65.8,30.15,NNE,14,0.0,0.0,75,0.00,,,0.00,VWS V13.01,2012-09-14 12:28:00,
2012-09-14 07:33:00,74.2,65.8,30.15,NNE,14,0.0,0.0,75,0.00,,,0.00,VWS V13.01,2012-09-14 12:33:00,
2012-09-14 07:38:00,74.4,66.0,30.15,NNE,31,0.0,0.0,75,0.00,,,0.00,VWS V13.01,2012-09-14 12:38:00,
2012-09-14 07:43:00,74.4,66.0,30.15,NNE,24,0.0,0.0,75,0.00,,,0.00,VWS V13.01,2012-09-14 12:43:00,
2012-09-14 07:48:00,74.8,65.6,30.15,North,10,4.0,4.0,73,0.00,,,0.00,VWS V13.01,2012-09-14 12:48:00,
2012-09-14 07:53:00,75.0,65.3,30.15,NNE,25,0.0,3.1,72,0.00,,,0.00,VWS V13.01,2012-09-14 12:53:00,
2012-09-14 07:58:00,75.3,65.3,30.15,NNE,28,0.0,0.0,71,0.00,,,0.00,VWS V13.01,2012-09-14 12:58:00,
2012-09-14 08:03:00,75.5,65.0,30.15,NE,41,0.0,0.0,70,0.00,,,0.00,VWS V13.01,2012-09-14 13:03:00,
2012-09-14 08:08:00,75.5,64.6,30.15,North,9,0.0,0.0,69,0.00,,,0.00,VWS V13.01,2012-09-14 13:08:00,
2012-09-14 08:13:00,75.7,64.8,30.15,NNE,14,0.0,0.0,69,0.00,,,0.00,VWS V13.01,2012-09-14 13:13:00,
2012-09-14 08:18:00,75.7,64.4,30.15,NNE,31,0.0,3.1,68,0.00,,,0.00,VWS V13.01,2012-09-14 13:18:00,
2012-09-14 08:23:00,75.7,64.0,30.15,NE,48,2.2,4.9,67,0.00,,,0.00,VWS V13.01,2012-09-14 13:23:00,
2012-09-14 08:27:00,75.9,63.7,30.15,North,6,0.0,4.0,66,0.00,,,0.00,VWS V13.01,2012-09-14 13:27:00,
2012-09-14 08:32:00,75.9,62.8,30.15,NW,322,2.7,4.9,64,0.00,,,0.00,VWS V13.01,2012-09-14 13:32:00,
2012-09-14 08:37:00,75.9,62.8,30.15,NE,45,0.0,0.0,64,0.00,,,0.00,VWS V13.01,2012-09-14 13:37:00,
2012-09-14 08:42:00,75.9,62.4,30.15,NNW,342,4.0,4.0,63,0.00,,,0.00,VWS V13.01,2012-09-14 13:42:00,
2012-09-14 08:47:00,75.9,61.9,30.15,NE,34,2.7,3.6,62,0.00,,,0.00,VWS V13.01,2012-09-14 13:47:00,
2012-09-14 08:52:00,76.0,62.1,30.15,ENE,78,2.2,4.0,62,0.00,,,0.00,VWS V13.01,2012-09-14 13:52:00,
2012-09-14 08:57:00,76.0,61.2,30.15,NNE,15,4.0,4.0,60,0.00,,,0.00,VWS V13.01,2012-09-14 13:57:00,
2012-09-14 09:02:00,76.2,61.3,30.15,NNE,29,3.1,3.1,60,0.00,,,0.00,VWS V13.01,2012-09-14 14:02:00,
2012-09-14 09:07:00,76.2,60.9,30.15,NE,38,3.6,3.6,59,0.00,,,0.00,VWS V13.01,2012-09-14 14:07:00,
2012-09-14 09:12:00,76.2,61.3,30.15,North,10,0.0,0.0,60,0.00,,,0.00,VWS V13.01,2012-09-14 14:12:00,
2012-09-14 09:17:00,76.4,60.5,30.15,North,359,2.2,2.7,58,0.00,,,0.00,VWS V13.01,2012-09-14 14:17:00,
2012-09-14 09:22:00,76.6,61.2,30.15,NE,40,0.0,0.0,59,0.00,,,0.00,VWS V13.01,2012-09-14 14:22:00,
2012-09-14 09:27:00,76.6,60.7,30.15,NE,40,0.0,0.0,58,0.00,,,0.00,VWS V13.01,2012-09-14 14:27:00,
2012-09-14 09:32:00,76.8,60.9,30.15,NNE,26,0.0,0.0,58,0.00,,,0.00,VWS V13.01,2012-09-14 14:32:00,
2012-09-14 09:37:00,76.9,60.6,30.15,NNE,33,0.0,0.0,57,0.00,,,0.00,VWS V13.01,2012-09-14 14:37:00,
2012-09-14 09:42:00,76.9,60.1,30.15,ESE,103,3.6,3.6,56,0.00,,,0.00,VWS V13.01,2012-09-14 14:42:00,
2012-09-14 09:47:00,76.8,59.9,30.15,ENE,75,2.2,3.6,56,0.00,,,0.00,VWS V13.01,2012-09-14 14:47:00,
2012-09-14 09:52:00,76.8,59.4,30.15,NNE,24,3.1,5.4,55,0.00,,,0.00,VWS V13.01,2012-09-14 14:52:00,
2012-09-14 09:57:00,76.8,59.4,30.15,East,100,3.1,3.1,55,0.00,,,0.00,VWS V13.01,2012-09-14 14:57:00,
2012-09-14 10:02:00,76.8,59.9,30.18,NNE,24,2.7,2.7,56,0.00,,,0.00,VWS V13.01,2012-09-14 15:02:00,
2012-09-14 10:07:00,76.8,59.4,30.18,NNE,21,2.7,3.1,55,0.00,,,0.00,VWS V13.01,2012-09-14 15:07:00,
2012-09-14 10:12:00,76.6,58.7,30.18,NE,37,3.1,3.1,54,0.00,,,0.00,VWS V13.01,2012-09-14 15:12:00,
2012-09-14 10:17:00,76.8,58.9,30.18,NE,54,3.6,3.6,54,0.00,,,0.00,VWS V13.01,2012-09-14 15:17:00,
2012-09-14 10:22:00,76.8,58.9,30.18,NE,42,2.7,2.7,54,0.00,,,0.00,VWS V13.01,2012-09-14 15:22:00,
2012-09-14 10:27:00,76.9,59.0,30.18,NE,54,0.0,2.2,54,0.00,,,0.00,VWS V13.01,2012-09-14 15:27:00,
2012-09-14 10:32:00,77.1,59.2,30.18,NE,50,2.2,2.7,54,0.00,,,0.00,VWS V13.01,2012-09-14 15:32:00,
2012-09-14 10:37:00,77.3,59.4,30.18,ENE,61,0.0,0.0,54,0.00,,,0.00,VWS V13.01,2012-09-14 15:37:00,
2012-09-14 10:42:00,77.7,59.2,30.18,NE,38,3.6,5.4,53,0.00,,,0.00,VWS V13.01,2012-09-14 15:42:00,
2012-09-14 10:47:00,77.8,59.3,30.18,ESE,103,3.6,3.6,53,0.00,,,0.00,VWS V13.01,2012-09-14 15:47:00,
2012-09-14 10:52:00,78.0,59.0,30.18,East,90,5.4,6.7,52,0.00,,,0.00,VWS V13.01,2012-09-14 15:52:00,
2012-09-14 10:57:00,78.0,59.0,30.18,SE,130,3.1,3.6,52,0.00,,,0.00,VWS V13.01,2012-09-14 15:57:00,
2012-09-14 11:02:00,78.0,59.0,30.18,NNE,30,3.6,3.6,52,0.00,,,0.00,VWS V13.01,2012-09-14 16:02:00,
2012-09-14 11:07:00,78.2,58.6,30.18,East,96,3.1,4.0,51,0.00,,,0.00,VWS V13.01,2012-09-14 16:07:00,
2012-09-14 11:12:00,78.2,58.6,30.18,NE,52,0.0,3.1,51,0.00,,,0.00,VWS V13.01,2012-09-14 16:12:00,
2012-09-14 11:17:00,78.4,58.8,30.18,ENE,61,4.0,4.0,51,0.00,,,0.00,VWS V13.01,2012-09-14 16:17:00,
2012-09-14 11:22:00,78.4,58.8,30.18,ENE,68,2.7,2.7,51,0.00,,,0.00,VWS V13.01,2012-09-14 16:22:00,
2012-09-14 11:27:00,78.0,58.5,30.18,ENE,78,3.1,3.1,51,0.00,,,0.00,VWS V13.01,2012-09-14 16:27:00,
2012-09-14 11:32:00,77.8,58.8,30.18,NNW,341,3.6,3.6,52,0.00,,,0.00,VWS V13.01,2012-09-14 16:32:00,
2012-09-14 11:37:00,78.2,58.6,30.18,NE,43,5.8,6.3,51,0.00,,,0.00,VWS V13.01,2012-09-14 16:37:00,
2012-09-14 11:42:00,78.2,58.6,30.18,NE,55,2.7,3.6,51,0.00,,,0.00,VWS V13.01,2012-09-14 16:42:00,
2012-09-14 11:47:00,78.4,58.2,30.18,NNE,30,2.7,3.6,50,0.00,,,0.00,VWS V13.01,2012-09-14 16:47:00,
2012-09-14 11:52:00,78.4,58.2,30.18,NE,51,3.6,4.9,50,0.00,,,0.00,VWS V13.01,2012-09-14 16:52:00,
2012-09-14 11:57:00,78.2,58.6,30.18,ENE,62,3.6,3.6,51,0.00,,,0.00,VWS V13.01,2012-09-14 16:57:00,
2012-09-14 12:02:00,78.4,58.8,30.18,North,3,3.1,4.0,51,0.00,,,0.00,VWS V13.01,2012-09-14 17:02:00,
2012-09-14 12:07:00,78.6,58.9,30.18,NE,55,3.1,3.1,51,0.00,,,0.00,VWS V13.01,2012-09-14 17:07:00,
2012-09-14 12:12:00,78.6,58.4,30.18,ENE,74,4.0,4.0,50,0.00,,,0.00,VWS V13.01,2012-09-14 17:12:00,
2012-09-14 12:17:00,78.4,58.2,30.18,ENE,77,4.0,4.0,50,0.00,,,0.00,VWS V13.01,2012-09-14 17:17:00,
2012-09-14 12:22:00,78.0,58.5,30.18,NE,49,4.9,4.9,51,0.00,,,0.00,VWS V13.01,2012-09-14 17:22:00,
2012-09-14 12:27:00,77.7,58.1,30.18,NE,44,2.7,2.7,51,0.00,,,0.00,VWS V13.01,2012-09-14 17:27:00,
2012-09-14 12:32:00,77.5,58.0,30.18,NNE,15,3.6,3.6,51,0.00,,,0.00,VWS V13.01,2012-09-14 17:32:00,
2012-09-14 12:37:00,77.5,58.5,30.18,NE,51,3.6,3.6,52,0.00,,,0.00,VWS V13.01,2012-09-14 17:37:00,
2012-09-14 12:42:00,77.1,58.7,30.18,NE,53,3.1,3.6,53,0.00,,,0.00,VWS V13.01,2012-09-14 17:42:00,
2012-09-14 12:47:00,76.4,58.0,30.18,NNE,15,5.8,5.8,53,0.00,,,0.00,VWS V13.01,2012-09-14 17:47:00,
2012-09-14 12:52:00,75.5,59.2,30.18,NNW,346,3.6,3.6,57,0.00,,,0.00,VWS V13.01,2012-09-14 17:52:00,
2012-09-14 12:57:00,75.1,60.8,30.18,North,357,6.3,6.3,61,0.00,,,0.00,VWS V13.01,2012-09-14 17:57:00,
2012-09-14 13:02:00,74.6,60.7,30.18,NNE,23,5.4,5.4,62,0.00,,,0.00,VWS V13.01,2012-09-14 18:02:00,
2012-09-14 13:07:00,74.4,61.9,30.18,NE,40,4.9,5.8,65,0.00,,,0.00,VWS V13.01,2012-09-14 18:07:00,
2012-09-14 13:12:00,74.4,61.9,30.18,NNE,22,4.9,4.9,65,0.00,,,0.00,VWS V13.01,2012-09-14 18:12:00,
2012-09-14 13:17:00,74.2,62.2,30.18,NNE,13,5.4,5.4,66,0.00,,,0.00,VWS V13.01,2012-09-14 18:17:00,
2012-09-14 13:22:00,74.6,64.2,30.18,NNE,26,2.7,3.6,70,0.00,,,0.00,VWS V13.01,2012-09-14 18:22:00,
2012-09-14 13:27:00,75.0,64.9,30.18,NNE,21,5.4,5.4,71,0.00,,,0.00,VWS V13.01,2012-09-14 18:27:00,
2012-09-14 13:32:00,75.3,62.3,30.18,NNE,19,2.2,3.6,64,0.00,,,0.00,VWS V13.01,2012-09-14 18:32:00,
2012-09-14 13:37:00,75.7,62.2,30.18,NNE,30,5.8,5.8,63,0.00,,,0.00,VWS V13.01,2012-09-14 18:37:00,
2012-09-14 13:42:00,76.2,60.9,30.18,NNW,347,8.3,8.3,59,0.00,,,0.00,VWS V13.01,2012-09-14 18:42:00,
2012-09-14 13:47:00,76.2,62.3,30.15,NNE,29,4.0,5.4,62,0.00,,,0.00,VWS V13.01,2012-09-14 18:47:00,
2012-09-14 13:52:00,76.4,60.5,30.15,ENE,71,6.3,6.3,58,0.00,,,0.00,VWS V13.01,2012-09-14 18:52:00,
2012-09-14 13:57:00,76.8,60.9,30.15,NNE,27,5.8,7.6,58,0.00,,,0.00,VWS V13.01,2012-09-14 18:57:00,
2012-09-14 14:02:00,76.9,60.6,30.15,NNE,24,4.0,6.3,57,0.00,,,0.00,VWS V13.01,2012-09-14 19:02:00,
2012-09-14 14:07:00,77.3,59.9,30.15,NE,41,5.4,5.8,55,0.00,,,0.00,VWS V13.01,2012-09-14 19:07:00,
2012-09-14 14:12:00,77.5,59.0,30.15,NE,56,3.6,5.4,53,0.00,,,0.00,VWS V13.01,2012-09-14 19:12:00,
2012-09-14 14:17:00,77.7,59.2,30.15,ESE,121,4.0,4.9,53,0.00,,,0.00,VWS V13.01,2012-09-14 19:17:00,
2012-09-14 14:22:00,77.7,59.2,30.15,North,4,6.3,6.3,53,0.00,,,0.00,VWS V13.01,2012-09-14 19:22:00,
2012-09-14 14:27:00,77.5,58.5,30.15,NE,36,8.3,8.3,52,0.00,,,0.00,VWS V13.01,2012-09-14 19:27:00,
2012-09-14 14:32:00,77.1,58.2,30.15,NE,45,7.6,8.7,52,0.00,,,0.00,VWS V13.01,2012-09-14 19:32:00,
2012-09-14 14:37:00,76.9,58.0,30.15,NNE,25,8.3,8.3,52,0.00,,,0.00,VWS V13.01,2012-09-14 19:37:00,
2012-09-14 14:42:00,77.1,59.2,30.15,NNE,30,3.6,4.0,54,0.00,,,0.00,VWS V13.01,2012-09-14 19:42:00,
2012-09-14 14:47:00,77.3,58.8,30.15,NE,45,3.6,6.3,53,0.00,,,0.00,VWS V13.01,2012-09-14 19:47:00,
2012-09-14 14:52:00,77.1,58.2,30.15,NNE,27,5.4,7.2,52,0.00,,,0.00,VWS V13.01,2012-09-14 19:52:00,
2012-09-14 14:57:00,77.1,58.7,30.15,North,5,4.0,8.1,53,0.00,,,0.00,VWS V13.01,2012-09-14 19:57:00,
2012-09-14 15:02:00,77.3,58.8,30.15,ENE,59,3.6,5.4,53,0.00,,,0.00,VWS V13.01,2012-09-14 20:02:00,
2012-09-14 15:07:00,77.3,59.4,30.15,NE,49,2.7,3.6,54,0.00,,,0.00,VWS V13.01,2012-09-14 20:07:00,
2012-09-14 15:12:00,77.3,58.8,30.15,NE,50,3.6,4.0,53,0.00,,,0.00,VWS V13.01,2012-09-14 20:12:00,
2012-09-14 15:17:00,77.5,59.0,30.15,ENE,65,4.0,4.9,53,0.00,,,0.00,VWS V13.01,2012-09-14 20:17:00,
2012-09-14 15:22:00,77.5,59.0,30.15,NE,39,3.6,4.0,53,0.00,,,0.00,VWS V13.01,2012-09-14 20:22:00,
2012-09-14 15:27:00,77.1,58.7,30.15,NE,36,5.8,7.2,53,0.00,,,0.00,VWS V13.01,2012-09-14 20:27:00,
2012-09-14 15:32:00,76.8,58.4,30.12,NNE,17,8.3,8.3,53,0.00,,,0.00,VWS V13.01,2012-09-14 20:32:00,
2012-09-14 15:37:00,76.6,59.2,30.12,North,354,4.0,4.0,55,0.00,,,0.00,VWS V13.01,2012-09-14 20:37:00,
2012-09-14 15:42:00,76.4,59.6,30.12,NW,319,0.0,0.0,56,0.00,,,0.00,VWS V13.01,2012-09-14 20:42:00,
2012-09-14 15:47:00,76.4,60.5,30.15,WNW,302,5.4,5.4,58,0.00,,,0.00,VWS V13.01,2012-09-14 20:47:00,
2012-09-14 15:52:00,76.0,62.1,30.15,West,281,2.2,4.0,62,0.00,,,0.00,VWS V13.01,2012-09-14 20:52:00,
2012-09-14 15:57:00,75.5,63.8,30.15,WNW,288,4.5,5.4,67,0.00,,,0.00,VWS V13.01,2012-09-14 20:57:00,
2012-09-14 16:02:00,74.1,65.2,30.15,WNW,303,4.0,4.0,74,0.00,,,0.00,VWS V13.01,2012-09-14 21:02:00,
2012-09-14 16:07:00,73.5,66.2,30.15,WNW,287,5.4,5.4,78,0.00,,,0.00,VWS V13.01,2012-09-14 21:07:00,
2012-09-14 16:12:00,72.8,66.3,30.15,NW,311,2.7,2.7,80,0.00,,,0.00,VWS V13.01,2012-09-14 21:12:00,
2012-09-14 16:17:00,72.6,66.5,30.15,NNW,327,3.1,3.6,81,0.04,,,0.04,VWS V13.01,2012-09-14 21:17:00,
2012-09-14 16:22:00,72.3,66.1,30.15,NNW,346,2.7,3.6,81,0.04,,,0.04,VWS V13.01,2012-09-14 21:22:00,
2012-09-14 16:27:00,71.9,66.1,30.15,NW,322,2.2,2.7,82,0.04,,,0.04,VWS V13.01,2012-09-14 21:27:00,
2012-09-14 16:32:00,71.9,66.8,30.15,NW,306,0.0,0.0,84,0.04,,,0.04,VWS V13.01,2012-09-14 21:32:00,
2012-09-14 16:37:00,71.7,67.0,30.15,North,2,0.0,2.7,85,0.04,,,0.04,VWS V13.01,2012-09-14 21:37:00,
2012-09-14 16:42:00,71.7,66.6,30.15,North,358,0.0,0.0,84,0.04,,,0.04,VWS V13.01,2012-09-14 21:42:00,
2012-09-14 16:47:00,71.5,66.5,30.15,North,4,2.7,3.6,84,0.08,,,0.08,VWS V13.01,2012-09-14 21:47:00,
2012-09-14 16:52:00,71.4,66.6,30.15,NNW,342,2.2,2.2,85,0.08,,,0.08,VWS V13.01,2012-09-14 21:52:00,
2012-09-14 16:57:00,71.2,66.4,30.15,NNW,343,2.2,3.1,85,0.08,,,0.08,VWS V13.01,2012-09-14 21:57:00,
2012-09-14 17:02:00,71.2,66.4,30.15,SSW,195,3.1,3.1,85,0.08,,,0.08,VWS V13.01,2012-09-14 22:02:00,
2012-09-14 17:07:00,71.2,66.4,30.15,SW,215,3.1,3.1,85,0.12,,,0.12,VWS V13.01,2012-09-14 22:07:00,
2012-09-14 17:12:00,71.0,66.6,30.15,SW,218,3.6,5.4,86,0.16,,,0.16,VWS V13.01,2012-09-14 22:12:00,
2012-09-14 17:17:00,70.8,67.1,30.15,WSW,254,4.0,4.0,88,0.16,,,0.20,VWS V13.01,2012-09-14 22:17:00,
2012-09-14 17:22:00,70.6,67.2,30.15,WSW,243,0.0,0.0,89,0.24,,,0.28,VWS V13.01,2012-09-14 22:22:00,
2012-09-14 17:27:00,70.6,67.6,30.15,WSW,237,3.6,4.0,90,0.31,,,0.35,VWS V13.01,2012-09-14 22:27:00,
2012-09-14 17:32:00,70.5,67.7,30.15,WSW,253,3.1,4.0,91,0.39,,,0.43,VWS V13.01,2012-09-14 22:32:00,
2012-09-14 17:37:00,70.5,67.7,30.15,WSW,239,2.7,2.7,91,0.51,,,0.55,VWS V13.01,2012-09-14 22:37:00,
2012-09-14 17:42:00,70.3,67.8,30.15,SW,219,0.0,0.0,92,0.55,,,0.63,VWS V13.01,2012-09-14 22:42:00,
2012-09-14 17:47:00,70.3,67.8,30.15,NW,309,0.0,0.0,92,0.63,,,0.71,VWS V13.01,2012-09-14 22:47:00,
2012-09-14 17:52:00,70.1,68.0,30.15,North,349,0.0,0.0,93,0.71,,,0.79,VWS V13.01,2012-09-14 22:52:00,
2012-09-14 17:57:00,70.1,68.6,30.15,WNW,288,0.0,0.0,95,0.75,,,0.83,VWS V13.01,2012-09-14 22:57:00,
2012-09-14 18:02:00,69.9,68.4,30.15,WNW,289,0.0,0.0,95,0.75,,,0.83,VWS V13.01,2012-09-14 23:02:00,
2012-09-14 18:07:00,69.9,68.4,30.15,WNW,289,0.0,0.0,95,0.71,,,0.83,VWS V13.01,2012-09-14 23:07:00,
2012-09-14 18:12:00,69.9,68.4,30.15,North,350,0.0,0.0,95,0.79,,,0.91,VWS V13.01,2012-09-14 23:12:00,
2012-09-14 18:17:00,69.9,68.7,30.15,NNW,347,0.0,0.0,96,0.75,,,0.94,VWS V13.01,2012-09-14 23:17:00,
2012-09-14 18:22:00,69.9,68.7,30.15,ENE,58,4.0,4.0,96,0.67,,,0.94,VWS V13.01,2012-09-14 23:22:00,
2012-09-14 18:27:00,69.9,69.0,30.15,North,359,0.0,2.2,97,0.67,,,0.98,VWS V13.01,2012-09-14 23:27:00,
2012-09-14 18:32:00,69.9,69.0,30.15,NNE,21,2.7,3.1,97,0.59,,,0.98,VWS V13.01,2012-09-14 23:32:00,
2012-09-14 18:37:00,69.9,69.3,30.15,ENE,59,2.2,3.1,98,0.51,,,0.98,VWS V13.01,2012-09-14 23:37:00,
2012-09-14 18:42:00,69.7,69.2,30.15,NNW,342,2.7,3.6,98,0.39,,,0.98,VWS V13.01,2012-09-14 23:42:00,
2012-09-14 18:47:00,69.7,69.2,30.15,NNE,25,2.7,3.6,98,0.31,,,0.98,VWS V13.01,2012-09-14 23:47:00,
2012-09-14 18:52:00,69.7,69.4,30.15,NE,50,2.2,2.7,99,0.24,,,0.98,VWS V13.01,2012-09-14 23:52:00,
2012-09-14 18:57:00,69.7,69.4,30.15,NNE,28,0.0,2.2,99,0.20,,,0.98,VWS V13.01,2012-09-14 23:57:00,
2012-09-14 19:02:00,69.7,69.4,30.15,ENE,61,0.0,2.2,99,0.16,,,0.98,VWS V13.01,2012-09-15 00:02:00,
2012-09-14 19:06:00,69.6,69.3,30.15,NE,37,3.1,4.9,99,0.16,,,0.98,VWS V13.01,2012-09-15 00:06:00,
2012-09-14 19:11:00,69.6,69.3,30.15,ENE,63,0.0,2.2,99,0.12,,,0.98,VWS V13.01,2012-09-15 00:11:00,
2012-09-14 19:16:00,69.6,69.3,30.18,ENE,71,0.0,0.0,99,0.04,,,0.98,VWS V13.01,2012-09-15 00:16:00,
2012-09-14 19:21:00,69.6,69.3,30.18,North,4,0.0,0.0,99,0.04,,,0.98,VWS V13.01,2012-09-15 00:21:00,
2012-09-14 19:26:00,69.6,69.3,30.18,NE,44,0.0,0.0,99,0.00,,,0.98,VWS V13.01,2012-09-15 00:26:00,
2012-09-14 19:31:00,69.6,69.3,30.15,NE,44,0.0,0.0,99,0.00,,,0.98,VWS V13.01,2012-09-15 00:31:00,
2012-09-14 19:36:00,69.7,69.4,30.15,NNE,13,3.1,3.1,99,0.00,,,0.98,VWS V13.01,2012-09-15 00:36:00,
2012-09-14 19:41:00,69.7,69.4,30.15,NNE,24,2.2,2.7,99,0.00,,,0.98,VWS V13.01,2012-09-15 00:41:00,
2012-09-14 19:46:00,69.7,69.4,30.18,NNE,32,3.1,3.6,99,0.00,,,0.98,VWS V13.01,2012-09-15 00:46:00,
2012-09-14 19:51:00,69.7,69.4,30.18,NNE,13,2.2,3.1,99,0.00,,,0.98,VWS V13.01,2012-09-15 00:51:00,
2012-09-14 19:56:00,69.7,69.4,30.18,NE,47,0.0,0.0,99,0.00,,,0.98,VWS V13.01,2012-09-15 00:56:00,
2012-09-14 20:01:00,69.7,69.4,30.18,NE,40,2.7,2.7,99,0.00,,,0.98,VWS V13.01,2012-09-15 01:01:00,
2012-09-14 20:06:00,69.7,69.7,30.18,NE,46,3.1,4.0,100,0.00,,,0.98,VWS V13.01,2012-09-15 01:06:00,
2012-09-14 20:11:00,69.7,69.7,30.18,ENE,58,0.0,2.2,100,0.00,,,0.98,VWS V13.01,2012-09-15 01:11:00,
2012-09-14 20:16:00,69.7,69.7,30.18,NE,40,0.0,0.0,100,0.00,,,0.98,VWS V13.01,2012-09-15 01:16:00,
2012-09-14 20:21:00,69.7,69.7,30.18,NE,40,0.0,0.0,100,0.00,,,0.98,VWS V13.01,2012-09-15 01:21:00,
2012-09-14 20:26:00,69.7,69.7,30.18,NE,40,0.0,0.0,100,0.00,,,0.98,VWS V13.01,2012-09-15 01:26:00,
2012-09-14 20:31:00,69.7,69.7,30.18,ENE,62,0.0,0.0,100,0.00,,,0.98,VWS V13.01,2012-09-15 01:31:00,
2012-09-14 20:36:00,69.7,69.7,30.18,East,83,0.0,0.0,100,0.00,,,0.98,VWS V13.01,2012-09-15 01:36:00,
2012-09-14 20:41:00,69.7,69.7,30.18,ENE,66,0.0,0.0,100,0.00,,,0.98,VWS V13.01,2012-09-15 01:41:00,
2012-09-14 20:46:00,69.7,69.7,30.18,NE,44,0.0,0.0,100,0.00,,,0.98,VWS V13.01,2012-09-15 01:46:00,
2012-09-14 20:51:00,69.7,69.7,30.18,NE,37,2.2,2.7,100,0.00,,,0.98,VWS V13.01,2012-09-15 01:51:00,
2012-09-14 20:56:00,69.7,69.7,30.18,NNE,33,0.0,0.0,100,0.00,,,0.98,VWS V13.01,2012-09-15 01:56:00,
2012-09-14 21:01:00,69.9,69.9,30.18,NE,34,0.0,0.0,100,0.00,,,0.98,VWS V13.01,2012-09-15 02:01:00,
2012-09-14 21:06:00,69.9,69.9,30.18,NE,34,0.0,0.0,100,0.00,,,0.98,VWS V13.01,2012-09-15 02:06:00,
2012-09-14 21:11:00,69.9,69.9,30.18,NE,37,0.0,0.0,100,0.00,,,0.98,VWS V13.01,2012-09-15 02:11:00,
2012-09-14 21:16:00,69.9,69.9,30.18,North,10,0.0,0.0,100,0.00,,,0.98,VWS V13.01,2012-09-15 02:16:00,
2012-09-14 21:21:00,69.9,69.9,30.18,North,349,0.0,0.0,100,0.00,,,0.98,VWS V13.01,2012-09-15 02:21:00,
2012-09-14 21:26:00,69.9,69.9,30.18,North,358,0.0,0.0,100,0.00,,,0.98,VWS V13.01,2012-09-15 02:26:00,
2012-09-14 21:31:00,69.9,69.9,30.21,NE,51,2.7,2.7,100,0.00,,,0.98,VWS V13.01,2012-09-15 02:31:00,
2012-09-14 21:36:00,69.9,69.9,30.21,NE,55,0.0,2.2,100,0.00,,,0.98,VWS V13.01,2012-09-15 02:36:00,
2012-09-14 21:41:00,69.9,69.9,30.21,NE,38,0.0,0.0,100,0.00,,,0.98,VWS V13.01,2012-09-15 02:41:00,
2012-09-14 21:46:00,69.9,69.6,30.21,North,360,3.6,3.6,99,0.00,,,0.98,VWS V13.01,2012-09-15 02:46:00,
2012-09-14 21:51:00,69.9,69.6,30.21,NNE,28,0.0,0.0,99,0.00,,,0.98,VWS V13.01,2012-09-15 02:51:00,
2012-09-14 21:56:00,70.1,69.8,30.21,NNE,20,0.0,0.0,99,0.00,,,0.98,VWS V13.01,2012-09-15 02:56:00,
2012-09-14 22:01:00,70.1,69.8,30.21,NNE,31,4.0,4.0,99,0.00,,,0.98,VWS V13.01,2012-09-15 03:01:00,
2012-09-14 22:06:00,70.1,69.8,30.21,NNE,15,2.7,2.7,99,0.00,,,0.98,VWS V13.01,2012-09-15 03:06:00,
2012-09-14 22:11:00,70.1,69.8,30.21,NE,42,0.0,0.0,99,0.00,,,0.98,VWS V13.01,2012-09-15 03:11:00,
2012-09-14 22:16:00,70.1,69.8,30.21,NNE,20,0.0,0.0,99,0.00,,,0.98,VWS V13.01,2012-09-15 03:16:00,
2012-09-14 22:21:00,70.1,69.8,30.21,NE,37,2.7,2.7,99,0.00,,,0.98,VWS V13.01,2012-09-15 03:21:00,
2012-09-14 22:26:00,70.1,69.8,30.21,North,9,2.7,3.1,99,0.00,,,0.98,VWS V13.01,2012-09-15 03:26:00,
2012-09-14 22:31:00,70.1,69.8,30.21,NNE,14,2.2,2.2,99,0.00,,,0.98,VWS V13.01,2012-09-15 03:31:00,
2012-09-14 22:36:00,70.1,69.8,30.21,NNE,27,0.0,0.0,99,0.00,,,0.98,VWS V13.01,2012-09-15 03:36:00,
2012-09-14 22:41:00,70.1,69.8,30.21,NNE,22,0.0,0.0,99,0.00,,,0.98,VWS V13.01,2012-09-15 03:41:00,
2012-09-14 22:46:00,70.3,70.0,30.21,NE,35,2.2,2.7,99,0.00,,,0.98,VWS V13.01,2012-09-15 03:46:00,
2012-09-14 22:51:00,70.3,70.0,30.21,NNW,345,0.0,0.0,99,0.00,,,0.98,VWS V13.01,2012-09-15 03:51:00,
2012-09-14 22:56:00,70.3,70.0,30.21,North,3,0.0,0.0,99,0.00,,,0.98,VWS V13.01,2012-09-15 03:56:00,
2012-09-14 23:00:00,70.3,70.0,30.18,North,353,2.2,2.2,99,0.00,,,0.98,VWS V13.01,2012-09-15 04:00:00,
2012-09-14 23:05:00,70.3,70.0,30.18,North,356,2.7,3.6,99,0.00,,,0.98,VWS V13.01,2012-09-15 04:05:00,
2012-09-14 23:10:00,70.3,70.0,30.18,NNW,344,2.7,2.7,99,0.00,,,0.98,VWS V13.01,2012-09-15 04:10:00,
2012-09-14 23:15:00,70.3,70.0,30.18,NNE,27,4.9,4.9,99,0.00,,,0.98,VWS V13.01,2012-09-15 04:15:00,
2012-09-14 23:20:00,70.3,70.0,30.18,NNE,25,0.0,3.6,99,0.00,,,0.98,VWS V13.01,2012-09-15 04:20:00,
2012-09-14 23:25:00,70.3,70.0,30.18,NNE,18,3.1,3.1,99,0.00,,,0.98,VWS V13.01,2012-09-15 04:25:00,
2012-09-14 23:30:00,70.3,70.0,30.18,NNE,19,3.6,4.0,99,0.00,,,0.98,VWS V13.01,2012-09-15 04:30:00,
2012-09-14 23:35:00,70.5,70.2,30.18,NNE,21,3.1,3.1,99,0.00,,,0.98,VWS V13.01,2012-09-15 04:35:00,
2012-09-14 23:40:00,70.5,69.9,30.18,NE,39,3.6,4.0,98,0.00,,,0.98,VWS V13.01,2012-09-15 04:40:00,
2012-09-14 23:45:00,70.5,69.9,30.18,NE,39,0.0,2.2,98,0.00,,,0.98,VWS V13.01,2012-09-15 04:45:00,
2012-09-14 23:50:00,70.5,69.9,30.18,NE,35,0.0,0.0,98,0.00,,,0.98,VWS V13.01,2012-09-15 04:50:00,
2012-09-14 23:55:00,70.5,69.9,30.18,NE,44,0.0,0.0,98,0.00,,,0.98,VWS V13.01,2012-09-15 04:55:00,